Cherry Point, NC

6:35 PM EDT on June 28, 2017 (GMT -0400)
Cherry Point Marine Corps Air Station

Weather History for KNKT - February, 2013

Change the Weather History Date:

Saturday, February 23, 2013

  Actual Average Record
Temperature  
Mean Temperature 54 °F -  
Max Temperature 62 °F 57 °F 73 °F (2012)
Min Temperature 46 °F 36 °F 27 °F (1999)
Degree Days  
Heating Degree Days 11    
Growing Degree Days 4 (Base 50)    
Moisture  
Dew Point 47 °F    
Average Humidity 93    
Maximum Humidity 100    
Minimum Humidity 87    
Precipitation  
Precipitation 0.84 in - - ()
Sea Level Pressure  
Sea Level Pressure 29.93 in    
Wind  
Wind Speed 4 mph ()    
Max Wind Speed 10 mph    
Max Gust Speed -    
Visibility 3.8 miles    
Events Fog , Rain , Thunderstorm    
Averages and records for this station are not official NWS values.
T = Trace of Precipitation, MM = Missing Value Source: Averaged Metar Reports

Daily Weather History Graph

Daily Weather History Graph

Search for Another Location

Airport or City:

Trip Planner

Search our weather history database for the weather conditions in past years. The results will help you decide how hot, cold, wet, or windy it might be!

Date:

Astronomy

Feb. 23, 2013 Rise Set
Actual Time 6:44 AM EST 5:58 PM EST
Civil Twilight 6:18 AM EST 6:23 PM EST
Nautical Twilight 5:49 AM EST 6:53 PM EST
Astronomical Twilight 5:19 AM EST 7:22 PM EST
Moon 4:08 PM EST (2/23) 5:02 AM EST (2/23)
Length of Visible Light 12h 05m
Length of Day
11h 14m
Waxing Gibbous, 95% of the Moon is Illuminated
Feb 23
Waxing Gibbous
Feb 25
Full
Mar 4
Last Quarter
Mar 11
New
Mar 19
First Quarter

Hourly Weather History & Observations

Time (EST) Temp. Windchill Dew Point Humidity Pressure Visibility Wind Dir Wind Speed Gust Speed Precip Events Conditions
12:54 AM 48.9 °F - 46.0 °F 90% 30.08 in 10.0 mi ENE 5.8 mph - N/A   Overcast
1:54 AM 48.9 °F - 46.9 °F 93% 30.04 in 1.8 mi NNE 6.9 mph - 0.12 in Rain , Thunderstorm Heavy Thunderstorms and Rain
2:05 AM 50.0 °F - 46.4 °F 87% 30.04 in 2.0 mi NE 5.8 mph - 0.07 in Rain , Thunderstorm Heavy Thunderstorms and Rain
2:10 AM 50.0 °F - 48.2 °F 94% 30.04 in 2.5 mi East 3.5 mph - 0.08 in Rain , Thunderstorm Heavy Thunderstorms and Rain
2:12 AM 50.0 °F - 48.2 °F 94% 30.04 in 3.0 mi East 3.5 mph - 0.08 in Rain Rain
2:54 AM 51.1 °F - 48.9 °F 92% 30.01 in 5.0 mi NNE 3.5 mph - 0.11 in Rain Rain
3:00 AM 51.8 °F - 48.2 °F 88% 30.01 in 6.0 mi NE 3.5 mph - 0.00 in Rain , Thunderstorm Thunderstorms and Rain
3:16 AM 51.8 °F - 48.2 °F 88% 29.99 in 2.0 mi ESE 6.9 mph - 0.08 in Rain , Thunderstorm Thunderstorms and Rain
3:26 AM 51.8 °F - 48.2 °F 88% 29.98 in 4.0 mi SE 4.6 mph - 0.09 in Rain , Thunderstorm Thunderstorms and Rain
3:43 AM 51.8 °F - 51.8 °F 100% 29.97 in 2.5 mi Calm Calm - 0.13 in Rain Rain
3:54 AM 52.0 °F - 50.0 °F 93% 29.96 in 2.0 mi Calm Calm - 0.17 in Rain Rain
4:10 AM 51.8 °F - 50.0 °F 94% 29.97 in 5.0 mi West 3.5 mph - 0.00 in   Overcast
4:54 AM 55.0 °F - 53.1 °F 93% 29.95 in 5.0 mi WSW 3.5 mph - 0.00 in Rain Light Rain
5:11 AM 53.6 °F - 51.8 °F 94% 29.95 in 4.0 mi Calm Calm - 0.01 in Rain Light Rain
5:54 AM 62.1 °F - 60.1 °F 93% 29.94 in 5.0 mi Calm Calm - 0.01 in   Overcast
6:14 AM 53.6 °F - 51.8 °F 94% 29.95 in 1.8 mi NW 10.4 mph - N/A   Overcast
6:54 AM 51.1 °F - 50.0 °F 96% 29.96 in 1.0 mi North 4.6 mph - 0.02 in Rain Light Rain
7:03 AM 50.0 °F - 48.2 °F 94% 29.98 in 0.2 mi NW 6.9 mph - 0.00 in Fog , Rain Light Rain
7:54 AM 50.0 °F - 48.0 °F 93% 29.98 in 1.8 mi NW 6.9 mph - 0.01 in Rain Light Rain
8:04 AM 50.0 °F - 48.2 °F 94% 29.99 in 2.5 mi NW 8.1 mph - 0.01 in Rain Light Rain
8:18 AM 48.2 °F - 46.4 °F 93% 29.99 in 1.2 mi NW 10.4 mph - 0.02 in Rain Light Rain
8:51 AM 46.4 °F 42.9 °F 46.4 °F 100% 29.99 in 2.0 mi NW 6.9 mph - 0.06 in Rain Rain
8:54 AM 46.9 °F - 46.0 °F 97% 29.99 in 2.5 mi NW 8.1 mph - 0.07 in Rain Rain
8:59 AM 46.4 °F 42.9 °F 44.6 °F 93% 29.99 in 3.0 mi NW 6.9 mph - 0.01 in Rain Rain
9:22 AM 46.4 °F 42.4 °F 44.6 °F 93% 29.98 in 4.0 mi WNW 8.1 mph - 0.04 in Rain Light Rain
9:54 AM 46.9 °F - 45.0 °F 93% 29.96 in 7.0 mi NW 9.2 mph - 0.07 in Rain Light Rain
10:54 AM 46.0 °F 43.1 °F 44.1 °F 93% 29.93 in 5.0 mi North 5.8 mph - 0.06 in Rain Light Rain
11:07 AM 46.4 °F 42.9 °F 44.6 °F 93% 29.95 in 2.0 mi NNW 6.9 mph - 0.02 in Rain Rain
11:46 AM 46.4 °F - 44.6 °F 93% 29.92 in 2.0 mi Calm Calm - 0.09 in Rain Rain
11:54 AM 46.9 °F - 45.0 °F 93% 29.91 in 2.0 mi Calm Calm - 0.10 in Rain Rain
12:32 PM 48.2 °F - 44.6 °F 87% 29.90 in 2.0 mi Calm Calm - 0.05 in Rain Light Rain
12:46 PM 48.2 °F - 44.6 °F 87% 29.89 in 1.5 mi North 3.5 mph - 0.06 in Rain Light Rain
12:54 PM 48.0 °F - 46.0 °F 93% 29.87 in 2.0 mi Calm Calm - 0.06 in Rain Light Rain
1:21 PM 48.2 °F - 46.4 °F 93% 29.87 in 2.0 mi Calm Calm - 0.00 in   Overcast
1:54 PM 48.9 °F - 46.0 °F 90% 29.86 in 1.8 mi NNW 5.8 mph - 0.02 in Rain Light Rain
2:05 PM 48.2 °F - 46.4 °F 93% 29.87 in 2.0 mi NNW 6.9 mph - 0.00 in Rain Light Rain
2:23 PM 48.2 °F - 46.4 °F 93% 29.88 in 2.0 mi NW 5.8 mph - 0.00 in   Overcast
2:36 PM 48.2 °F - 46.4 °F 93% 29.87 in 1.5 mi WNW 4.6 mph - 0.01 in Rain Light Rain
2:52 PM 50.0 °F - 48.2 °F 94% 29.87 in 2.0 mi West 3.5 mph - 0.01 in Rain Light Rain
2:54 PM 50.0 °F - 48.0 °F 93% 29.86 in 2.0 mi West 3.5 mph - 0.02 in Rain Light Rain
3:08 PM 50.0 °F - 48.2 °F 94% 29.86 in 2.0 mi Variable 4.6 mph - 0.00 in   Overcast
3:40 PM 51.8 °F - 48.2 °F 88% 29.86 in 10.0 mi NW 5.8 mph - 0.00 in   Overcast
3:54 PM 51.1 °F - 48.9 °F 92% 29.84 in 9.0 mi Calm Calm - 0.00 in   Overcast
4:54 PM 51.1 °F - 48.9 °F 92% 29.84 in 10.0 mi NNW 5.8 mph - N/A   Overcast
5:54 PM 48.9 °F - 46.9 °F 93% 29.84 in 9.0 mi West 4.6 mph - N/A   Overcast
6:54 PM 48.9 °F - 46.9 °F 93% 29.83 in 6.0 mi NNW 4.6 mph - N/A   Overcast
7:33 PM 48.2 °F - 46.4 °F 93% 29.86 in 3.0 mi NNW 8.1 mph - N/A   Overcast
7:54 PM 46.9 °F - 46.0 °F 97% 29.86 in 5.0 mi NNW 6.9 mph - N/A   Overcast
8:08 PM 48.2 °F - 46.4 °F 93% 29.86 in 7.0 mi Calm Calm - N/A   Overcast
8:42 PM 46.4 °F 45.2 °F 44.6 °F 93% 29.87 in 2.0 mi WNW 3.5 mph - N/A   Overcast
8:54 PM 46.9 °F - 45.0 °F 93% 29.85 in 4.0 mi South 6.9 mph - N/A   Overcast
9:10 PM 48.2 °F - 44.6 °F 87% 29.86 in 6.0 mi Calm Calm - N/A   Overcast
9:54 PM 48.0 °F - 46.0 °F 93% 29.88 in 6.0 mi West 4.6 mph - N/A   Overcast
10:54 PM 46.9 °F - 45.0 °F 93% 29.86 in 6.0 mi NW 4.6 mph - N/A   Overcast
11:54 PM 46.9 °F - 45.0 °F 93% 29.84 in 5.0 mi WSW 3.5 mph - N/A   Overcast